Regional Weather Roundup
Issued by NWS Wakefield, VA

Home | Current Version | Previous Version | Graphics & Text | Print | Product List | Glossary On
Versions: 1 2 3 4 5 6 7 8 9 10 11 12 13 14 15 16 17 18 19 20 21 22 23 24 25 26 27 28 29 30 31 32 33 34 35 36 37 38 39 40 41 42 43 44 45 46 47 48 49 50
000
ASUS41 KAKQ 221115
RWRAKQ

REGIONAL WEATHER ROUNDUP
NATIONAL WEATHER SERVICE WAKEFIELD VA
700 AM EDT TUE MAY 22 2018

Note: "fair" indicates few or no clouds below 12,000 feet with no
significant weather and/or obstructions to visibility. * = Denotes
station may not report precipitation (e.g., rain,snow,etc.),
thunder or fog.

VAZ042-051-052>054-056-221200-
NORTHERN VIRGINIA

CITY           SKY/WX    TMP DP  RH WIND       PRES   REMARKS
WASH NATIONAL  LGT RAIN  66  60  81 CALM      30.12R
DULLES         CLOUDY    65  60  84 S6        30.11R
FORT BELVOIR   CLOUDY    66  58  75 VRB2      30.12R
QUANTICO       LGT RAIN  67  63  87 SE6       30.12S
FREDERICKSBRG* CLOUDY    66  62  87 CALM      30.11S
STAFFORD*      DRIZZLE   65  65 100 CALM      30.15R
WARRENTON      CLOUDY    66  60  80 CALM      30.11S
CULPEPER*      CLOUDY    66  62  86 CALM      30.12R
MANASSAS*      CLOUDY    65  61  87 SE5       30.12R
LEESBURG*      LGT RAIN  68  63  83 S6        30.12R
WINCHESTER     DRIZZLE   63  63 100 CALM      30.10S
FRONT ROYAL*   CLOUDY   N/A N/A N/A CALM      30.08S
LURAY*         CLOUDY    64  64 100 CALM      30.10S
$$

VAZ048-049-060>072-079>083-221200-
CENTRAL AND SOUTH CENTRAL VIRGINIA

CITY           SKY/WX    TMP DP  RH WIND       PRES   REMARKS
RICHMOND       CLOUDY    66  64  93 S3        30.12S FOG
CHESTERFIELD*  CLOUDY    66  63  90 SE5       30.13R
PETERSBURG*    CLOUDY    64  63  94 CALM      30.13S FOG
HANOVER        CLOUDY    66  64  93 S6        30.13S
TAPPAHANNOCK*  NOT AVBL
QUINTON*       CLOUDY    66  66 100 CALM      30.12S
CHARLOTTSVILLE FOG       68  66  93 S6        30.11R VSB 1/2
GORDONSVILLE*  CLOUDY    66  66 100 S3        30.12R FOG
ORANGE*        CLOUDY    64  63  94 S3        30.12R
LOUISA*        CLOUDY    65  64  94 S3        30.16R FOG
BUMPASS*       CLOUDY    64  63  96 CALM      30.12R
FARMVILLE*     CLOUDY   N/A N/A N/A S3        30.11S
CREWE*         CLOUDY    65  65 100 CALM      30.12S
FORT PICKETT*  CLOUDY   N/A N/A N/A CALM      30.13R VSB 1/4
CHASE CITY*    CLOUDY    66  66 100 CALM      30.13R VSB 1/4
CLARKSVILLE*   CLOUDY    68  68 100 CALM      30.13R
SOUTH HILL*    CLOUDY    65  65 100 CALM      30.19R VSB<1/4
LAWRENCEVILLE* CLOUDY    64  63  97 CALM      30.13S VSB 1/2
EMPORIA*       FOG       64  64 100 CALM      30.15R VSB 1/2
$$

VAZ088>098-221200-
SOUTHEAST VIRGINIA

CITY           SKY/WX    TMP DP  RH WIND       PRES   REMARKS
NORFOLK        CLOUDY    67  65  93 SE5       30.13R
VIRGINIA BEACH CLOUDY    66  65  96 E5        30.12R
NORFOLK NAVAL  PTSUNNY   67  63  87 E3        30.14R
WEST POINT*    CLOUDY    67  62  83 SE6       30.14R
SALUDA*        CLOUDY    66  63  88 SE5       30.13R
NEWPORT NEWS   CLOUDY    67  63  87 E5        30.13R
LANGLEY AFB    CLOUDY    67  65  91 S5        30.13R
FORT EUSTIS    CLOUDY    68  64  89 E3        30.11R
WILLIAMSBURG*  CLOUDY    70  64  83 CALM      30.13S
HR EXEC AP*    CLOUDY    67  65  93 CALM      30.14R
FRANKLIN*      FOG       65  64  98 CALM      30.14R VSB 1
US460-WAKEFLD  CLOUDY    66  64  93 CALM      30.13S FOG
$$

VAZ020-022-025-037-045-221200-
WEST CENTRAL AND SOUTHWEST VIRGINIA

CITY           SKY/WX    TMP DP  RH WIND       PRES   REMARKS
STAUNTON*      CLOUDY    64  64  99 CALM      30.13S FOG
WAYNESBORO*    PTSUNNY   63  63  99 SW3       30.13R
HOT SPRINGS VA CLOUDY    61  61 100 W12       30.21R FOG
LYNCHBURG      FOG       67  66  97 S8        30.13R VSB 1
DANVILLE       CLOUDY    67  67 100 CALM      30.13R FOG
SOUTH BOSTON*  CLOUDY    68  66  94 CALM      30.13S
MARTINSVILLE   FOG       63  63  98 CALM      30.16S VSB<1/4
ROANOKE        CLOUDY    67  66  97 E3        30.15R
BLACKSBURG     FAIR      64  64 100 CALM      30.20R FOG
DUBLIN*        FOG       63  63 100 CALM      30.18R VSB<1/4
MARION*        FOG       62  61  98 CALM      30.21S VSB<1/4
HILLSVILLE*    FOG       61  60  96 SW3       30.18S VSB 1/2
RICHLANDS*     FAIR      63  30  29 CALM      30.18S
WISE*          MOCLDY    64  64 100 S5        30.19R
ABINGDON*      FAIR      64  64 100 E3        30.17R
$$

MDZ021>025-VAZ099-100-221200-
SOUTHERN MARYLAND AND THE DELMARVA PENINSULA

CITY           SKY/WX    TMP DP  RH WIND       PRES   REMARKS
PATUXENT RIVER CLOUDY    70  56  61 S6        30.12R
BAY BRIDGE APT CLOUDY    68  61  77 SE6       30.13R
LEONARDTOWN    CLOUDY    64  59  82 CALM      30.14S
DOVER          FAIR      63  60  92 SE3       30.14R
GEORGETOWN     CLOUDY    62  59  90 S5        30.15R
EASTON         PTSUNNY   64  59  82 CALM      30.17R
CAMBRIDGE      PTSUNNY   63  59  88 SE8       30.13S
SALISBURY      PTSUNNY   62  60  93 SE3       30.14R
TANGIER        CLOUDY    66  61  82 SE7       30.13R
OCEAN CITY     CLOUDY    62  60  93 SE3       30.15R
WALLOPS ISLAND PTSUNNY   65  62  90 SE5       30.14R
ACCOMACK*      CLOUDY    64  61  88 SE5       30.14R
$$

NCZ012>017-030>032-221200-
NORTH CENTRAL AND EASTERN NORTH CAROLINA

CITY           SKY/WX    TMP DP  RH WIND       PRES   REMARKS
ROANOKE RAPIDS FOG       66  66 100 CALM      30.13R VSB<1/4
RALEIGH        MOCLDY    68  68 100 CALM      30.13R FOG
ELIZABETH CITY CLOUDY    70  70 100 CALM      30.13R
AHOSKIE*       DRZL/FOG  66  66 100 CALM      30.13R VSB<1/4
EDENTON*       NOT AVBL
CURRITUCK*     NOT AVBL
KILL DEVIL HLS CLOUDY    67  67 100 CALM      30.11S FOG
MANTEO         CLOUDY    71  70  96 W3        30.13S
CAPE HATTERAS  FAIR      73  72  96 SW6       30.14S
TARBORO*       NOT AVBL
GOLDSBORO      FAIR      71  70  96 SW6       30.11R
WASHINGTON     CLOUDY    70  69  96 CALM      30.14R
GREENVILLE     CLOUDY    70  70 100 CALM      30.14R
NEW BERN       CLOUDY    70  70 100 SW5       30.15R FOG
WILMINGTON     FAIR      73  70  90 W3        30.14R
$$

VAZ048-221200-
ELSEWHERE

CITY           SKY/WX    TMP DP  RH WIND       PRES   REMARKS
HARRISBURG PA  PTSUNNY   64  61  90 SE5       30.10R
BALTIMORE      CLOUDY    65  59  81 CALM      30.11S
ANNAPOLIS      PTSUNNY   70  61  73 SE5       30.12R
ANDREWS AFB    CLOUDY    64  59  83 CALM      30.12R
PHILADELPHIA   CLOUDY    61  57  87 E3        30.14R
HENDERSON NC   CLOUDY    65  64  97 S3        30.14R FOG
GREENSBORO     MOCLDY    67  67 100 CALM      30.13R
ROCKY MOUNT    CLOUDY    69  68  96 CALM      30.13S FOG
$$

VAZ100-221200-
MARINE

STATION/POSITION TIME  TEMP    WIND        PRES    WAVE   SWELL
                       AIR SEA DIR/SP/G            HT/PER HT/PER
                 (UTC) (F)     (DEG/KT/KT) (MB)    (FT/S) (FT/S)
BRANDYWINE LGT   1042   62     180/ 14/ 15 1020.9R
CAPE MAY NJ      1048   60 63  130/  6/  8 1020.2R
LEWES DE         1042   62 63  170/  4/  5 1020.7R
15NM E FENWICK I 1050   57 58  100/  6/  6 1021.2R   2/ 8   2/ 8
OCEAN-CITY-INLET 1042   62 61  150/  3/  5 1021.4R
WACHAPREAGUE VA  1042   64 71  120/  3/  4 1020.5R
THOMAS POINT MD  1100   67 69  150/  9/  9 1021.0R
COVE POINT MD    1042   68     190/ 12/ 13 1020.7R
SOLOMONS ISLAND  1042   68 69  150/  7/  8 1019.9R
BISHOPS HEAD MD  1042   67 72  140/  9/ 10 1020.8R
PINEY POINT MD   1042          170/  7/  8   N/A
CAMBRIDGE MD     1042   64 72              1021.1R
LEWISETTA VA     1042   68 74  170/  4/  5 1020.1R
RAPPAHANNOCK LGT 1042          130/  9/ 10 1021.0R
YORK RVR RNG VA  1042   67     170/  9/ 11 1020.9R
YORKTOWN VA      1042   67 72  140/  4/  7 1019.8R
DOMINION TERM VA 1042   68     120/  4/  5 1020.4R
KIPTOPEKE VA     1042      70  140/  6/  7   N/A
CAPE HENRY VA    1042   66     120/  7/  9   N/A
WILLOUBY STN VA  1042          120/  4/  4   N/A
S CRANEY ISL VA  1042   67     130/  6/  7 1019.9R
CAPE HENRY BUOY  1100      66                N/A     2/ 9
64NM E OF VA BCH 1050   65 67  100/ 10/ 10 1020.4R   3/ 9   3/ 9
DUCK PIER NC     1042   67 68  350/  2/  2 1019.7R
44100 DUCK FRF   1045      66                N/A     3/ 8
44056 DUCK FRF   1100      68                N/A     2/ 9
OREGON INLET NC  1042   72 74  260/  6/  8 1020.0R
HATTERAS NC      1042   73 74  220/  5/  7 1020.3R
DIAMOND SHLS NC  1100   74 73  230/ 10/ 12 1021.1
CAPE LOOKOUT NC  1100          230/  4/  5 1021.1R
$$



USA.gov is the U.S. government's official web portal to all federal, state and local government web resources and services.